FW3958 Weather Reports


time (UTC)temp
F
wind
direction
speed
knots
gust
knots
rain 1hr
in
rain 24hr
in
rain mn
in
humidity
%
barometer
mb
20260831223018 74 330 4.3 7.0 0.00 0.00 0.00 71 1011.0
20260831221522 74 26 3.5 8.7 0.00 0.00 0.00 71 1010.9
20260831220010 75 311 6.1 8.7 0.00 0.00 0.00 69 1010.9
20260831214506 76 5 1.7 7.8 0.00 0.00 0.00 67 1011.1
20260831213003 76 16 1.7 4.3 0.00 0.00 0.00 64 1011.4
20260831211614 76 12 0.9 5.2 0.00 0.00 0.00 64 1011.4
20260831210057 74 359 2.6 7.0 0.00 0.00 0.00 67 1011.5
20260831204556 74 282 0.0 7.0 0.00 0.00 0.00 67 1011.5
20260831203052 74 333 0.0 7.8 0.00 0.00 0.00 66 1011.7
20260831201553 73 317 1.7 7.0 0.00 0.00 0.00 69 1012.0
20260831200045 72 316 2.6 8.7 0.00 0.00 0.00 71 1012.1
20260831194618 71 12 3.5 8.7 0.00 0.00 0.00 69 1012.2
20260831193042 71 347 1.7 8.7 0.00 0.00 0.00 70 1012.2
20260831191539 71 11 2.6 10.4 0.00 0.00 0.00 72 1012.5
20260831190040 70 7 2.6 6.1 0.00 0.00 0.00 73 1012.7
20260831184544 71 322 1.7 6.1 0.00 0.00 0.00 71 1012.9
20260831183034 70 19 0.0 0.9 0.00 0.00 0.00 72 1013.0
20260831181533 70 6 1.7 7.0 0.00 0.00 0.00 70 1013.2
20260831180029 69 46 0.0 7.0 0.00 0.00 0.00 73 1013.2
20260831174543 69 282 0.0 2.6 0.00 0.00 0.00 75 1013.2
20260831173023 68 355 0.0 2.6 0.00 0.00 0.00 78 1013.4
20260831171537 67 90 0.0 0.0 0.00 0.00 0.00 78 1013.5
20260831170045 66 95 0.0 0.0 0.00 0.00 0.00 84 1013.5
20260831164513 65 85 0.0 0.0 0.00 0.00 0.00 88 1013.6
20260831163010 63 46 0.0 1.7 0.00 0.00 0.00 92 1013.7
20260831161505 62 90 0.0 1.7 0.00 0.00 0.00 96 1013.9
20260831160001 59 52 0.0 0.0 0.00 0.00 0.00 99 1014.0
20260831154613 57 52 0.0 0.0 0.00 0.00 0.00 100 1014.1
20260831153152 55 52 0.0 0.0 0.00 0.00 0.00 100 1014.2
20260831151549 53 52 0.0 0.0 0.00 0.00 0.00 100 1014.3
20260831150048 51 52 0.0 0.0 0.00 0.00 0.00 100 1014.2
20260831144547 47 52 0.0 0.0 0.00 0.00 0.00 100 1014.3
20260831143046 46 52 0.0 0.0 0.00 0.00 0.00 100 1014.3
20260831141543 46 16 0.0 0.0 0.00 0.00 0.00 100 1014.4
20260831140043 46 13 0.0 0.0 0.00 0.00 0.00 100 1014.6
20260831134543 46 13 0.0 0.0 0.00 0.00 0.00 100 1014.7
20260831133041 46 13 0.0 0.0 0.00 0.00 0.00 100 1014.5
20260831131537 46 13 0.0 0.0 0.00 0.00 0.00 100 1014.7
20260831130035 46 13 0.0 0.0 0.00 0.00 0.00 100 1014.9
20260831124536 47 13 0.0 0.0 0.00 0.00 0.00 100 1014.9
20260831123031 46 13 0.0 0.0 0.00 0.00 0.00 100 1015.0
20260831121529 47 13 0.0 0.0 0.00 0.00 0.00 100 1015.2
20260831120031 47 13 0.0 0.0 0.00 0.00 0.00 100 1015.4
20260831114525 47 13 0.0 0.0 0.00 0.00 0.00 100 1015.5
20260831113022 48 13 0.0 0.0 0.00 0.00 0.00 100 1015.6
20260831111528 48 13 0.0 0.0 0.00 0.00 0.00 100 1015.6
20260831110019 48 13 0.0 0.0 0.00 0.00 0.00 100 1015.7
20260831104529 48 13 0.0 0.0 0.00 0.00 0.00 100 1015.9
20260831103035 48 13 0.0 0.0 0.00 0.00 0.00 100 1015.8
20260831101513 48 13 0.0 0.0 0.00 0.00 0.00 100 1016.0
20260831100017 48 13 0.0 0.0 0.00 0.00 0.00 100 1016.2
20260831094522 49 13 0.0 0.0 0.00 0.00 0.00 100 1016.4
20260831093007 49 13 0.0 0.0 0.00 0.00 0.00 100 1016.6
20260831091503 50 13 0.0 0.0 0.00 0.00 0.00 100 1016.7
20260831090003 50 13 0.0 0.0 0.00 0.00 0.00 100 1017.0
20260831084600 50 13 0.0 0.0 0.00 0.00 0.00 100 1017.1
20260831083058 50 13 0.0 0.0 0.00 0.00 0.00 100 1017.2
20260831081555 51 13 0.0 0.0 0.00 0.00 0.00 100 1017.3
20260831080103 51 13 0.0 0.0 0.00 0.00 0.00 100 1017.5
20260831074550 52 13 0.0 0.0 0.00 0.00 0.00 100 1017.6
20260831073048 52 13 0.0 0.0 0.00 0.00 0.00 100 1017.8
20260831071545 52 13 0.0 0.0 0.00 0.00 0.00 100 1017.9
20260831070042 53 13 0.0 0.0 0.00 0.00 0.00 100 1018.2
20260831064541 53 13 0.0 0.0 0.00 0.00 0.00 100 1018.2
20260831063038 53 13 0.0 0.0 0.00 0.00 0.00 100 1018.5
20260831061538 54 13 0.0 0.0 0.00 0.00 0.00 100 1018.6
20260831060038 54 13 0.0 0.0 0.00 0.01 0.00 98 1018.8
20260831054535 55 13 0.0 0.0 0.00 0.01 0.00 98 1019.0
20260831053034 56 13 0.0 0.0 0.00 0.01 0.00 97 1019.1
20260831051534 56 13 0.0 0.0 0.00 0.01 0.00 97 1019.3
20260831050032 57 13 0.0 0.0 0.00 0.01 0.00 96 1019.4
20260831044531 58 13 0.0 0.9 0.00 0.01 0.00 95 1019.5
20260831043029 58 14 0.0 3.5 0.00 0.01 0.00 94 1019.7
20260831041537 59 17 0.0 4.3 0.00 0.01 0.00 93 1019.7
20260831040030 59 338 0.0 1.7 0.00 0.01 0.00 91 1019.8
20260831034529 60 354 0.0 1.7 0.00 0.01 0.00 90 1019.8
20260831033029 61 342 0.0 3.5 0.00 0.01 0.00 88 1019.7
20260831031539 62 326 0.9 4.3 0.00 0.01 0.00 87 1019.5
20260831030027 62 331 0.9 3.5 0.00 0.03 0.00 86 1019.6
20260831024526 63 336 0.0 6.1 0.00 0.03 0.00 84 1019.6
20260831023024 64 343 1.7 7.0 0.00 0.03 0.00 83 1019.7
20260831021524 64 353 3.5 7.0 0.00 0.03 0.00 81 1019.7
20260831020023 65 2 2.6 8.7 0.00 0.03 0.00 78 1019.9
20260831014522 66 337 3.5 7.8 0.00 0.03 0.00 79 1020.1
20260831013019 66 313 1.7 7.8 0.00 0.03 0.00 78 1020.3
20260831011517 67 354 2.6 7.8 0.00 0.03 0.00 77 1020.5
20260831010030 67 1 2.6 7.0 0.00 0.03 0.00 76 1020.6
20260831004515 67 347 2.6 7.8 0.00 0.03 0.00 76 1020.6
20260831003013 67 339 3.5 8.7 0.00 0.03 0.00 75 1020.9
20260831001511 67 355 3.5 8.7 0.00 0.03 0.00 76 1020.9
20260831000020 68 286 4.3 8.7 0.00 0.03 0.00 75 1020.9
20260830234507 68 330 4.3 8.7 0.00 0.03 0.00 76 1021.0
20260830233006 68 292 3.5 7.0 0.00 0.03 0.00 76 1021.1
20260830231505 67 334 4.3 8.7 0.00 0.03 0.00 78 1021.1
20260830230009 68 338 3.5 7.8 0.00 0.04 0.00 77 1021.2
20260830224502 68 300 0.0 7.0 0.00 0.04 0.00 76 1021.3